Regional Weather Roundup
Issued by NWS Green Bay, WI

Home | Current Version | Previous Version | Text Only | Print | Product List | Glossary On
Versions: 1 2 3 4 5 6 7 8 9 10 11 12 13 14 15 16 17 18 19 20 21 22 23 24 25 26 27 28 29 30 31 32 33 34 35 36 37 38 39 40 41 42 43 44 45 46 47 48 49 50
644
ASUS43 KGRB 261811
RWRGRB

NORTH-CENTRAL AND NORTHEAST WISCONSIN REGIONAL WEATHER ROUNDUP
NATIONAL WEATHER SERVICE GREEN BAY WI
1200 PM CST SUN FEB 26 2017

WIZ005-009-010>012-018-019-261900-
NORTH CENTRAL WISCONSIN

CITY           SKY/WX    TMP DP  RH WIND       PRES   REMARKS
IRONWOOD       FLURRIES  29  22  75 W13       29.65S
MANITOWISH WTR CLOUDY    28  21  75 SW10G18   29.64S
ARBOR VITAE    CLOUDY    29  22  73 W14G20      N/A
EAGLE RIVER    CLOUDY    28  19  70 SW15      29.65F
LAND O LAKES   CLOUDY    28  21  75 SW10G20   29.65F
RHINELANDER    CLOUDY    30  21  69 SW14G24   29.68F
PHILLIPS       CLOUDY    29  21  72 SW12G18   29.68S
ANTIGO         CLOUDY    30  20  65 SW16G24   29.71S
TOMAHAWK       CLOUDY    30  20  65 SW7       29.70S
MERRILL        NOT AVBL
$$

WIZ013-073-261900-
NORTHEAST WISCONSIN

CITY           SKY/WX    TMP DP  RH WIND       PRES   REMARKS
IRON MOUNTAIN  CLOUDY    30  18  60 SW10G17   29.68F
MARINETTE      MOSUNNY   33  20  58 SW16G23   29.75F
OCONTO         PTSUNNY   33  21  61 SW15G22   29.77F
$$

WIZ017-030-035>037-045-261900-
CENTRAL WISCONSIN

CITY           SKY/WX    TMP DP  RH WIND       PRES   REMARKS
MEDFORD        PTSUNNY   29  20  69 SW13      29.72S
WAUSAU         PTSUNNY   31  20  63 W13       29.73S
MOSINEE        MOSUNNY   32  21  64 SW16G25   29.76S
MARSHFIELD     PTSUNNY   33  20  58 W14       29.75R
WISC RAPIDS    SUNNY     36  21  54 W15       29.78F
STEVENS POINT  SUNNY     33  20  58 W14G20    29.76F
WAUPACA        SUNNY     38  22  51 SW15      29.79S
SHAWANO        SUNNY     37  21  54 SW12G20   29.77F
CLINTONVILLE   MOSUNNY   34  21  60 SW15      29.78S
WAUTOMA        SUNNY     37  22  54 SW17      29.80S
$$

WIZ038-039-048-051-261900-
FOX VALLEY

CITY           SKY/WX    TMP DP  RH WIND       PRES   REMARKS
NWS GREEN BAY  SUNNY     34  24  67 SW13      29.79F
APPLETON       MOSUNNY   34  19  55 SW15      29.78S
OSHKOSH        SUNNY     34  22  61 SW10G20   29.80S
FOND DU LAC    SUNNY     35  21  56 SW17G25   29.82S
$$

WIZ022-050-052-261900-
EAST CENTRAL WISCONSIN

CITY           SKY/WX    TMP DP  RH WIND       PRES   REMARKS
EPHRAIM        MOCLDY    32  23  69 SW14G21   29.75F
WASHINGTON ISL CLOUDY    31  20  65 SW16      29.75F
STURGEON BAY   CLOUDY    34  23  64 SW21G26   29.77F
MANITOWOC      PTSUNNY   35  21  56 SW16G25   29.82F
SHEBOYGAN      PTSUNNY   35  22  58 SW18      29.82F
$$

LMZ563-521-522-541>543-261900-
LAKESHORE

STATION/POSITION TIME  TEMP    WIND        PRES    VSBY  WAVE
                       AIR SEA DIR/SP/G                  HT/PER
                 (UTC) (F)     (DEG/KT/KT) (MB)    (MI)  (FT/S)
SHEBOYGAN LKSHOR 1800   35     230/ 21/ 25 1010.7F
KEWAUNEE LKSHORE 1748   35     230/ 10/ 17 1009.0F
NORTHPORT PIER   1800   33     210/  9/ 22 1007.5
SISTER BAY LKSHO 1735   34        CALM       N/A
CHAMBERS ISLAND  1740   33     190/ 10/ 17 1007.5F
MENOMINEE LKSHOR 1748   32     230/ 17/ 23 1007.1F
$$




USA.gov is the U.S. government's official web portal to all federal, state and local government web resources and services.